カタログに戻る

KUIPER-00607

運用中通信LEO
NORAD 69290·PAYLOAD·🇺🇸 United States

打ち上げ May 29, 2026 から Vandenberg Space Force Base

Loading…

次のパス (今後24時間)

TLE

最新Source: CelesTrak SupGP

元期: Sep 14, 2026, 22:51 UTC

1 69290C 26118Z   26257.95263889  .00002080  00000+0  27224-3 0  2572
2 69290  51.9014 348.7329 0001279   7.3039 262.6853 14.79930832    14

AllMySatでKUIPER-00607をリアルタイム追跡

Download on the App Store